Location: Caltech
(34.1382°N, 118.1253°W)
Time: 12:34:20
(UTC-08:00)

SL-16 R/B - Visible Passes

Search period start: 13 December 2017 00:00
Search period end: 23 December 2017 00:00
Orbit: 842 x 846 km, 71.0° (Epoch: 13 December)

Date Brightness Start Highest point End Pass type
(mag) Time Alt. Az. Time Alt. Az. Time Alt. Az.
13 Dec 4.9 04:30:55 10° NE 04:32:41 11° NE 04:34:28 10° ENE visible
13 Dec 2.3 06:11:52 10° NNW 06:17:34 89° ENE 06:23:14 10° SSE visible
14 Dec 4.9 04:16:58 10° NE 04:18:23 11° NE 04:19:48 10° ENE visible
14 Dec 2.3 05:57:36 10° NNW 06:03:18 86° ENE 06:08:58 10° SSE visible
14 Dec 4.1 19:01:49 10° S 19:03:07 17° SSE 19:03:07 17° SSE visible
15 Dec 5.0 04:03:08 10° NE 04:04:04 10° NE 04:05:02 10° ENE visible
15 Dec 2.3 05:43:20 10° NNW 05:49:02 83° ENE 05:54:42 10° SSE visible
15 Dec 3.5 18:47:36 10° S 18:50:15 25° SSE 18:50:15 25° SSE visible
16 Dec 2.3 05:29:04 10° NNW 05:34:46 79° ENE 05:40:25 10° SSE visible
16 Dec 3.0 18:33:25 10° SSE 18:37:22 32° SE 18:37:22 32° SE visible
16 Dec 4.7 20:17:53 10° WSW 20:19:18 16° WSW 20:19:18 16° WSW visible
17 Dec 2.3 05:15:28 14° NNW 05:20:30 76° ENE 05:26:09 10° SSE visible
17 Dec 2.8 18:19:13 10° SSE 18:24:15 34° ESE 18:24:29 34° E visible
17 Dec 4.3 20:03:32 10° WSW 20:06:25 23° W 20:06:25 23° W visible
18 Dec 2.3 05:02:18 21° NNW 05:06:14 73° ENE 05:11:52 10° SSE visible
18 Dec 2.9 18:05:01 10° SSE 18:10:01 33° ESE 18:11:34 28° ENE visible
18 Dec 3.9 19:49:10 10° WSW 19:53:29 28° WNW 19:53:29 28° WNW visible
19 Dec 2.4 04:49:13 31° N 04:51:58 70° ENE 04:57:35 10° SSE visible
19 Dec 3.0 17:50:50 10° SSE 17:55:46 31° ESE 17:58:35 20° ENE visible
19 Dec 3.7 19:34:50 10° WSW 19:39:45 30° WNW 19:40:31 29° NW visible
20 Dec 2.4 04:36:12 48° N 04:37:41 67° ENE 04:43:19 10° SSE visible
20 Dec 3.9 06:18:38 10° WNW 06:21:06 13° W 06:23:34 10° SW visible
20 Dec 3.0 17:36:40 10° SSE 17:41:30 30° ESE 17:45:33 14° NE visible
20 Dec 3.7 19:20:30 10° SW 19:25:29 31° WNW 19:27:29 25° NNW visible
21 Dec 2.4 04:23:15 64° ENE 04:23:25 64° ENE 04:29:02 10° SSE visible
21 Dec 3.8 06:05:11 12° W 06:06:52 14° W 06:09:34 10° SW visible
21 Dec 3.1 17:22:28 10° SSE 17:27:15 29° ESE 17:32:03 10° NE visible
21 Dec 3.7 19:06:10 10° SW 19:11:11 33° WNW 19:14:22 19° NNW visible
22 Dec 2.9 04:10:20 50° ESE 04:10:20 50° ESE 04:14:45 10° SSE visible
22 Dec 3.8 05:52:17 14° W 05:52:37 14° W 05:55:31 10° SW visible
22 Dec 3.2 17:08:19 10° SSE 17:13:01 28° ESE 17:17:44 10° NE visible
22 Dec 3.6 18:51:49 10° SW 18:56:55 34° WNW 19:01:11 14° N visible
